(175805) = 1999 RQ155

Discovered at Socorro on 1999-09-09 by LINEAR.

Orbit

Orbit type: Main Belt

Note: WebGL enabled browser required.

epoch2024-03-31.0
epoch JD2460400.5
perihelion date2025-01-28.58914
perihelion JD2460704.08914
argument of perihelion (°)136.05255
ascending node (°)234.49599
inclination (°)3.78902
eccentricity0.1949218
perihelion distance (AU)1.8924986
Tisserand w.r.t. Jupiter3.5
ΔV w.r.t. Earth (km/sec)8.6
semimajor axis (AU)2.3507015
mean anomaly (°)276.97788
mean daily motion (°/day)0.27346870
aphelion distance (AU)2.809
period (years)3.6
P-vector [x]0.98186524
P-vector [y]0.15052780
P-vector [z]0.11524774
Q-vector [x]-0.18178732
Q-vector [y]0.92006362
Q-vector [z]0.34703933
absolute magnitude16.62
phase slope0.15
uncertainty0
referenceMPEC 2024-C115
observations used689
oppositions17
arc length (days)8630
first opposition used1999
last opposition used2023
residual rms (arc-secs)0.63
perturbers coarse indicatorM-v
perturbers precise indicator003Ek
first observation date used1999-09-05.0
last observation date used2023-04-22.0
computer nameMPCLINUX
JD of orbit computation2456966.751754
perihelion JD uncertainty (days)4.6072E-05
argument of perihelion uncertainty (°)7.9733E-05
ascending node uncertainty (°)7.8247E-05
inclination uncertainty (°)5.6697E-06
eccentricity uncertainty 6.0074E-08
perihelion distance uncertainty (AU)1.3828E-07
Minimum Orbit Intersection Distances (in AU)
for orbit epoch: 2460200.5, reference: E2024-CB5
Mercury1.54242
Venus1.17256
Earth0.89393
Mars0.4812
Jupiter2.65768
Saturn6.63485
Uranus15.6764
Neptune27.8216

Observations

700 total observations over interval: 1999 09 05.29449 – 2023 04 22.335250
These data are available for download (format description).

Date (UT) J2000 RA J2000 Dec Magn Location Ref
1999 09 05.29449 23 03 02.26 +01 58 37.7 17.9 R 703 – Catalina Sky Survey MPS 6362
1999 09 05.30552 23 03 01.62 +01 58 33.8 18.0 R 703 – Catalina Sky Survey MPS 6362
1999 09 05.31653 23 03 01.06 +01 58 32.2 18.5 R 703 – Catalina Sky Survey MPS 6362
1999 09 05.32754 23 03 00.58 +01 58 27.8 17.9 R 703 – Catalina Sky Survey MPS 6362
1999 09 07.34193 23 01 23.70 +01 46 46.7 18.9   704 – Lincoln Laboratory ETS, New Mexico MPS 6362
1999 09 07.35372 23 01 23.09 +01 46 41.9 19.1   704 – Lincoln Laboratory ETS, New Mexico MPS 6362
1999 09 07.36550 23 01 22.49 +01 46 36.9 19.0   704 – Lincoln Laboratory ETS, New Mexico MPS 6362
1999 09 07.37729 23 01 21.89 +01 46 33.2 18.9   704 – Lincoln Laboratory ETS, New Mexico MPS 6362
1999 09 07.38910 23 01 21.28 +01 46 29.2 18.7   704 – Lincoln Laboratory ETS, New Mexico MPS 6362
1999 09 08.23172 23 00 41.15 +01 41 24.6 18.4 R 699 – Lowell Observatory-LONEOS MPS 6362
1999 09 08.26235 23 00 39.55 +01 41 14.0   699 – Lowell Observatory-LONEOS MPS 6362
1999 09 08.29301 23 00 38.06 +01 41 03.3   699 – Lowell Observatory-LONEOS MPS 6362
1999 09 09.34427 22 59 47.06 +01 34 33.7 18.2   704 – Lincoln Laboratory ETS, New Mexico MPS 6362
1999 09 09.35812 22 59 46.28 +01 34 28.8 18.7   704 – Lincoln Laboratory ETS, New Mexico MPS 6362
1999 09 09.37205 22 59 45.61 +01 34 23.9 18.7   704 – Lincoln Laboratory ETS, New Mexico MPS 6362
1999 09 09.38632 22 59 44.89 +01 34 18.0 18.8   704 – Lincoln Laboratory ETS, New Mexico MPS 6362
1999 09 09.40020 22 59 44.16 +01 34 13.8 18.9   704 – Lincoln Laboratory ETS, New Mexico MPS 6362
1999 09 14.21004 22 55 55.51 +01 02 57.5 19.4   704 – Lincoln Laboratory ETS, New Mexico MPS 6362
1999 09 14.22293 22 55 54.91 +01 02 52.8 19.5   704 – Lincoln Laboratory ETS, New Mexico MPS 6362
1999 09 14.23579 22 55 54.23 +01 02 48.0 19.3   704 – Lincoln Laboratory ETS, New Mexico MPS 6362
1999 09 14.24875 22 55 53.63 +01 02 42.9 19.5   704 – Lincoln Laboratory ETS, New Mexico MPS 6362
1999 10 07.16399 22 43 11.07 -01 27 04.1 18.5 R 703 – Catalina Sky Survey MPS 6841
1999 10 07.17631 22 43 10.87 -01 27 07.8 18.6 R 703 – Catalina Sky Survey MPS 6841
1999 10 07.18865 22 43 10.72 -01 27 11.0 19.0 R 703 – Catalina Sky Survey MPS 6841
1999 10 07.20097 22 43 10.46 -01 27 16.5 18.9 R 703 – Catalina Sky Survey MPS 6841
1999 10 15.16592 22 42 21.67 -02 05 25.7 18.8   704 – Lincoln Laboratory ETS, New Mexico MPS 15181
1999 10 15.18155 22 42 21.62 -02 05 29.8 19.2   704 – Lincoln Laboratory ETS, New Mexico MPS 15181
1999 10 15.19717 22 42 21.62 -02 05 34.3 19.6   704 – Lincoln Laboratory ETS, New Mexico MPS 15181
1999 10 15.21274 22 42 21.65 -02 05 38.0 19.7   704 – Lincoln Laboratory ETS, New Mexico MPS 15181
1999 10 15.22837 22 42 21.56 -02 05 42.5 19.7   704 – Lincoln Laboratory ETS, New Mexico MPS 15181
2001 02 20.244620 10 21 10.753 +03 56 48.93 20.31 V 645 – Apache Point-Sloan Digital Sky Survey MPS 95633
2001 02 20.248092 10 21 10.557 +03 56 50.21 21.12   645 – Apache Point-Sloan Digital Sky Survey MPS 95633
2003 12 19.26503 05 06 26.21 +19 42 17.9 19.9   704 – Lincoln Laboratory ETS, New Mexico MPS 94432
2003 12 19.27853 05 06 25.32 +19 42 15.4 20.0   704 – Lincoln Laboratory ETS, New Mexico MPS 94432
2003 12 19.29182 05 06 24.47 +19 42 12.9 19.7   704 – Lincoln Laboratory ETS, New Mexico MPS 94432
2003 12 19.30506 05 06 23.60 +19 42 10.3 19.7   704 – Lincoln Laboratory ETS, New Mexico MPS 94432
2003 12 19.31840 05 06 22.75 +19 42 08.0 19.2   704 – Lincoln Laboratory ETS, New Mexico MPS 94432
2003 12 23.20669 05 02 29.86 +19 30 57.2 19.4   704 – Lincoln Laboratory ETS, New Mexico MPS 94432
2003 12 23.21926 05 02 29.17 +19 30 54.6 19.1   704 – Lincoln Laboratory ETS, New Mexico MPS 94432
2003 12 23.23189 05 02 28.32 +19 30 52.6 19.5   704 – Lincoln Laboratory ETS, New Mexico MPS 94432
2003 12 23.24444 05 02 27.62 +19 30 50.7 19.3   704 – Lincoln Laboratory ETS, New Mexico MPS 94432
2003 12 23.25750 05 02 26.82 +19 30 48.3 19.6   704 – Lincoln Laboratory ETS, New Mexico MPS 94432
2005 05 14.20199 12 01 07.84 -03 28 24.7 20.1 R G96 – Mt. Lemmon Survey MPS 134697
2005 05 14.20962 12 01 07.78 -03 28 24.1 19.8 R G96 – Mt. Lemmon Survey MPS 134697
2005 05 14.21724 12 01 07.70 -03 28 22.3 19.8 R G96 – Mt. Lemmon Survey MPS 134697
2005 05 14.22483 12 01 07.66 -03 28 21.7 20.2 R G96 – Mt. Lemmon Survey MPS 134697
2006 06 19.42982 20 31 19.06 -13 32 11.3 20.2 V 691 – Steward Observatory, Kitt Peak-Spacewatch MPS 173810
2006 06 19.44724 20 31 18.73 -13 32 08.9 20.0 V 691 – Steward Observatory, Kitt Peak-Spacewatch MPS 173810
2006 06 19.46467 20 31 18.44 -13 32 06.8 19.8 V 691 – Steward Observatory, Kitt Peak-Spacewatch MPS 173810
2006 07 19.24495 20 11 17.11 -13 20 42.0 18.6 R 644 – Palomar Mountain/NEAT MPS 174804
2006 07 19.24732 20 11 16.98 -13 20 42.0 18.3 R 644 – Palomar Mountain/NEAT MPS 174804
2006 07 19.26523 20 11 15.86 -13 20 43.8 18.8 R 644 – Palomar Mountain/NEAT MPS 174804
2006 07 19.26763 20 11 15.74 -13 20 43.8 19.0 R 644 – Palomar Mountain/NEAT MPS 174804
2006 07 19.28553 20 11 14.61 -13 20 45.3 18.9 R 644 – Palomar Mountain/NEAT MPS 174804
2006 07 19.28792 20 11 14.51 -13 20 45.5 19.2 R 644 – Palomar Mountain/NEAT MPS 174804
2006 08 13.17734 19 47 53.28 -14 15 09.1 18.3 R 644 – Palomar Mountain/NEAT MPS 175670
2006 08 13.19883 19 47 52.25 -14 15 12.3 19.4 R 644 – Palomar Mountain/NEAT MPS 175670
2006 08 13.21938 19 47 51.26 -14 15 15.7 18.9 R 644 – Palomar Mountain/NEAT MPS 175670
2006 08 19.15548 19 43 53.40 -14 30 47.5 19.5 R 644 – Palomar Mountain/NEAT MPS 175912
2006 08 19.17619 19 43 52.64 -14 30 50.7 18.3 R 644 – Palomar Mountain/NEAT MPS 175912
2006 08 19.19683 19 43 51.86 -14 30 54.2 18.3 R 644 – Palomar Mountain/NEAT MPS 175912
2006 08 20.15772 19 43 19.41 -14 33 22.8 19.3 R 644 – Palomar Mountain/NEAT MPS 175912
2006 08 20.18436 19 43 18.47 -14 33 27.1 18.6 R 644 – Palomar Mountain/NEAT MPS 175912
2006 08 20.20564 19 43 17.72 -14 33 30.3 18.6 R 644 – Palomar Mountain/NEAT MPS 175912
2008 01 15.36427 09 17 07.77 +09 41 51.0 19.8 V 691 – Steward Observatory, Kitt Peak-Spacewatch MPS 234098
2008 01 15.38261 09 17 06.77 +09 41 53.8 19.9 V 691 – Steward Observatory, Kitt Peak-Spacewatch MPS 234098
2008 01 15.40071 09 17 05.80 +09 41 57.2 20.1 V 691 – Steward Observatory, Kitt Peak-Spacewatch MPS 234098
2008 01 19.34091 09 13 29.26 +09 53 10.9 20.1 V 691 – Steward Observatory, Kitt Peak-Spacewatch MPS 235020
2008 01 19.35903 09 13 28.25 +09 53 15.0 20.2 V 691 – Steward Observatory, Kitt Peak-Spacewatch MPS 235020
2008 01 19.37740 09 13 27.14 +09 53 18.2 20.0 V 691 – Steward Observatory, Kitt Peak-Spacewatch MPS 235020
2008 02 02.27872 08 59 16.20 +10 45 57.4 19.7   704 – Lincoln Laboratory ETS, New Mexico MPS 236115
2008 02 02.29108 08 59 15.45 +10 46 01.1 19.8   704 – Lincoln Laboratory ETS, New Mexico MPS 236115
2008 02 02.30348 08 59 14.61 +10 46 05.9 20.2   704 – Lincoln Laboratory ETS, New Mexico MPS 236115
2008 02 02.32841 08 59 13.08 +10 46 10.0 20.1   704 – Lincoln Laboratory ETS, New Mexico MPS 236115
2008 02 07.26500 08 54 04.21 +11 07 57.6 19.6 V 703 – Catalina Sky Survey MPS 236115
2008 02 07.27159 08 54 03.92 +11 07 57.3 19.2 V 703 – Catalina Sky Survey MPS 236115
2008 02 07.27815 08 54 03.38 +11 08 00.5 19.8 V 703 – Catalina Sky Survey MPS 236115
2008 02 07.28473 08 54 03.02 +11 08 01.9 20.1 V 703 – Catalina Sky Survey MPS 236115
2008 02 08.30161 08 53 00.52 +11 12 35.4 19.9 V G96 – Mt. Lemmon Survey MPS 236115
2008 02 08.30370 08 53 00.38 +11 12 36.0 19.6 V G96 – Mt. Lemmon Survey MPS 236115
2008 02 08.30580 08 53 00.27 +11 12 36.5 19.7 V G96 – Mt. Lemmon Survey MPS 236115
2008 02 08.30791 08 53 00.13 +11 12 36.9 19.8 V G96 – Mt. Lemmon Survey MPS 236115
2008 02 10.27112 08 51 01.36 +11 21 29.0 19.6   704 – Lincoln Laboratory ETS, New Mexico MPS 237341
2008 02 10.28343 08 51 00.55 +11 21 31.6 20.4   704 – Lincoln Laboratory ETS, New Mexico MPS 237341
2008 02 10.29562 08 50 59.81 +11 21 35.1 19.9   704 – Lincoln Laboratory ETS, New Mexico MPS 237341
2008 02 10.30807 08 50 59.04 +11 21 39.2 19.9   704 – Lincoln Laboratory ETS, New Mexico MPS 237341
2008 02 10.32030 08 50 58.26 +11 21 42.5 19.9   704 – Lincoln Laboratory ETS, New Mexico MPS 237342
